PROFILE

 METAR AND TAF INFORMATION
ADDS - METARS form results

(0033 UTC 01 November 2020)
http://aviationweather.gov/metar/data/
 
TNCM 010000Z 07010KT 040V100 9999 FEW018 28/22 Q1016 NOSIG
TNCM 312356Z 0100/0124 07010KT P6SM VCSH FEW018 SCT035 FM011400 09014KT P6SM SCT022 FM012200 08010KT P6SM FEW019 SCT035 

 AIRPORT MAP

 RUNWAY INFORMATION
Runway 10 Runway length 7546 ft Runway width 150 ft
Runway elevation 13 ft Runway displaced threshold 0 ft Runway heading 96
Runway 28 Runway length 7546 ft Runway width 150 ft
Runway elevation 9 ft Runway displaced threshold 328 ft Runway heading 276

 AIRPORT FREQUENCIES
Type APP Name JULIANA AP Frequency 128.95 MHZ
Type TWR Name JULIANA TW Frequency 118.7 MHZ

 AIRPORT NEAR NAVIGATION AIDS
Type NDB Name St.mMarten Frequency 284 KHZ
Type VOR-DME Name St.mMarten Frequency 113000 KHZ